Location: Stillwell
(40.4602°N, 82.0928°W)
Time: 17:18:58
(UTC-04:00)

Cosmos 1356 Rocket - Pass Details

Date: 25 May 2018
Orbit: 543 x 599 km, 81.2° (Epoch: 19 June)

Event Time Altitude Azimuth Distance (km) Brightness Sun altitude
Exits shadow 23:03:24 54° 143° (SE) 725 3.5 -20.1°
Maximum altitude 23:04:05 64° 96° (E) 663 3.4 -20.2°
Drops below altitude 10° 23:08:21 10° 16° (NNE) 1,945 6.6 -20.7°
Sets 23:10:36 0° 13° (NNE) 2,855 7.6 -20.9°
